sat.trackr.live / text

‹ back to catalog

STARLINK-34022

NORAD 63866 · 2025-094C

PAYLOAD ACTIVE UNKNOWN

§ Identity

Operator
Country
US
Launch date
2025-05-10
Launch site
AFWTR
Launch vehicle
Mass (kg)
RCS (m²)

Purposes: comms

External: N2YO · Heavens-Above · Gunter

§ Orbital elements

Epoch: 2026-09-20T22:51:57.766752Z

Period
94.14 min
Inclination
69.9998°
Eccentricity
0.0003041
Mean motion
15.29577575 rev/d
Perigee alt
475.0 km
Apogee alt
479.2 km
Semi-major
6,855.2 km
B*
3.0941e-4
RAAN
99.6618°
Arg perigee
269.5450°
Mean anomaly
90.5377°
Rev number
7,651

§ Raw data

STARLINK-340221 63866U 25094C   26263.95275193  .00008776  00000+0  30941-3 0  99962 63866  69.9998  99.6618 0003041 269.5450  90.5377 15.29577575 76512

JSON: /api/v1/satellites/63866 · /tle

For live sub-satellite position, see the globe view (requires WebGL).

§ Visibility from observer

Set your observer location to see the next 7 days of passes ≥ 10°. The values pass through the URL so the page stays shareable.

No JS? Fill the form by hand. The geolocation button needs JavaScript.